sat.trackr.live / text

‹ back to catalog

STARLINK-30552

NORAD 57999 · 2023-153J

PAYLOAD ACTIVE UNKNOWN

§ Identity

Operator
Country
US
Launch date
2023-10-05
Launch site
AFETR
Launch vehicle
Mass (kg)
RCS (m²)

Purposes: comms

External: N2YO · Heavens-Above · Gunter

§ Orbital elements

Epoch: 2026-09-20T21:08:48.952032Z

Period
94.27 min
Inclination
43.0020°
Eccentricity
0.0001534
Mean motion
15.27569683 rev/d
Perigee alt
482.0 km
Apogee alt
484.1 km
Semi-major
6,861.2 km
B*
-1.1270e-7
RAAN
45.1232°
Arg perigee
269.0561°
Mean anomaly
91.0114°
Rev number
16,474

§ Raw data

STARLINK-305521 57999U 23153J   26263.88112213 -.00000265  00000+0 -11270-6 0  99992 57999  43.0020  45.1232 0001534 269.0561  91.0114 15.27569683164749

JSON: /api/v1/satellites/57999 · /tle

For live sub-satellite position, see the globe view (requires WebGL).

§ Visibility from observer

Set your observer location to see the next 7 days of passes ≥ 10°. The values pass through the URL so the page stays shareable.

No JS? Fill the form by hand. The geolocation button needs JavaScript.